[[{"header":{"parameterUnit":"m.s-1","parameterCategory":1,"la1":30.2991,"la2":30.254,"lo1":-89.0895,"lo2":-89.0444,"dy":0.0017,"dx":0.0017,"nx":28,"ny":28,"refTime":"2025-08-02T09:00:00:Z","depth":0,"parameterNumber":2,"parameterNumberName":"U-component_of_WINDS"},"data":[0,0,0,0,0,0,0,0,0,0,0,0,0,0,0,0,0,0,0,0,0,0,0,0,0,0,0,0,0,0,0,0,0,0,0,0,0,0,0,0,0,0,0,0,0,0,0,0,0,0,0,0,0,0,0,0,0,0,1.3202,1.3202,0,1.3265,1.3266,1.3267,1.3242,1.324,1.3239,1.3237,1.3307,1.331,1.3313,0,0,0,0,0,0,0,0,0,0,0,0,0,1.3064,1.3067,1.3202,1.3202,1.3203,1.3265,1.3266,1.3267,1.3242,1.324,1.3238,1.3236,1.3306,1.3309,1.3313,0,0,0,0,0,0,0,0,0,0,0,0,0,1.3126,1.3068,1.3201,1.3198,1.3198,1.3265,1.3266,1.3267,1.3242,1.324,1.3238,1.3236,1.3304,1.3309,1.3314,1.3389,0,0,1.3329,1.3331,0,0,0,0,0,0,0,0,1.3122,1.3131,1.3198,1.3198,1.3199,1.3243,1.3243,1.3308,1.3243,1.3226,1.3237,1.3234,1.3288,1.3294,1.3311,1.3392,1.3395,1.3329,1.3332,1.3334,1.3336,0,0,0,0,0,0,0,1.3118,1.3128,1.3227,1.3199,1.3199,1.3195,1.3202,1.3255,1.3269,1.3227,1.3225,1.3233,1.3288,1.3306,1.3312,1.3396,1.3329,1.3333,1.3336,1.3338,1.3548,1.355,0,0,0,0,0,0,1.3113,1.3124,1.3225,1.3229,1.3154,1.32,1.3207,1.3231,1.3268,1.3271,1.3235,1.3232,1.3299,1.3307,1.3315,1.3408,1.3334,1.3339,1.3342,1.3545,1.3548,1.3551,0,0,0,0,0,0,1.311,1.3122,1.3222,1.3176,1.3189,1.3204,1.3232,1.3234,1.3252,1.3274,1.3277,1.3251,1.3297,1.3308,1.3372,1.341,1.3341,1.3345,1.3542,1.3546,1.355,1.3594,0,0,0,0,0,0,1.3106,1.3121,1.3148,1.3177,1.3191,1.3276,1.3235,1.3237,1.326,1.3256,1.329,1.3293,1.3296,1.3364,1.3376,1.3416,1.3349,1.3539,1.3544,1.3549,1.3589,1.3599,1.3608,0,0,0,0,0,1.3101,1.3158,1.315,1.3162,1.3225,1.3278,1.3287,1.3288,1.3263,1.3292,1.3307,1.3292,1.3404,1.3371,1.3384,1.3426,1.3536,1.3542,1.3548,1.3585,1.3597,1.3607,0,0,0,0,0,0,1.3134,1.3162,1.3153,1.322,1.3247,1.3274,1.331,1.33,1.3336,1.3331,1.3333,1.3341,1.3407,1.3423,1.3386,1.3503,1.3467,1.3476,1.349,1.3502,1.3511,1.3507,1.3353,0,0,0,0,0,1.3149,1.3188,1.3211,1.3268,1.3282,1.3294,1.3317,1.3316,1.3345,1.3357,1.3375,1.3405,1.3448,1.3475,1.3515,1.3591,1.36,1.3627,1.3636,1.3643,1.3651,1.3697,1.371,1.3571,1.3571,1.3571,0,0,1.318,1.32,1.3225,1.3276,1.3296,1.334,1.3304,1.335,1.3383,1.3364,1.3426,1.3441,1.3475,1.3546,1.3579,1.3561,1.3692,1.3651,1.3656,1.3661,1.3705,1.3718,1.3729,1.3575,1.3574,1.3573,0,0,1.326,1.3278,1.3329,1.3351,1.3383,1.3391,1.3404,1.3433,1.3442,1.3504,1.3492,1.3532,1.3604,1.3629,1.3652,1.3745,1.3735,1.3758,1.3806,1.3851,1.3862,1.3872,1.3908,1.3921,1.3766,1.3766,1.3766,0,1.3295,1.3358,1.3357,1.3406,1.343,1.3414,1.3468,1.349,1.3534,1.3552,1.3531,1.3624,1.3645,1.3724,1.3747,1.3765,1.3782,1.3755,1.386,1.387,1.3879,1.3914,1.3927,1.3769,1.3769,1.3768,1.3768,0,1.3402,1.3446,1.3484,1.3527,1.3555,1.3606,1.3615,1.3645,1.3642,1.3653,1.3719,1.3744,1.379,1.3809,1.3806,1.3889,1.3878,1.3858,1.3823,1.3895,1.3928,1.3941,1.3773,1.3772,1.3771,1.377,0,0,1.3503,1.3546,1.3561,1.3582,1.3617,1.3652,1.3704,1.3749,1.3776,1.3807,1.3853,1.3915,1.3899,1.3925,1.3925,1.3964,1.4041,1.3941,1.3942,1.3961,1.4138,1.4154,1.4169,1.4034,1.4036,1.4038,1.4136,0,1.3588,1.3677,1.3679,1.3763,1.3806,1.3793,1.3839,1.3867,1.3879,1.392,1.3934,1.3979,1.3952,1.3968,1.4006,1.4023,1.4077,1.4016,1.408,1.4082,1.4074,1.4186,1.4202,1.4294,1.4149,1.4151,1.4153,0,1.3698,1.3734,1.3821,1.3854,1.3872,1.3913,1.3956,1.3993,1.4027,1.4033,1.4063,1.4059,1.4116,1.4077,1.4157,1.4116,1.4142,1.4155,1.4159,1.4166,1.4123,1.42,1.4322,1.4337,1.4172,1.4171,1.4169,0,1.3767,1.3837,1.3899,1.3917,1.3955,1.3985,1.4003,1.4034,1.4062,1.41,1.4119,1.4164,1.4189,1.4225,1.4235,1.4205,1.4316,1.4277,1.4326,1.4326,1.4351,1.435,1.4483,1.4364,1.4364,1.4364,1.4363,0,1.3863,1.3918,1.3931,1.3969,1.4032,1.4035,1.4097,1.4113,1.4142,1.4185,1.4177,1.4218,1.4227,1.4272,1.428,1.4347,1.4358,1.4367,1.4369,1.4369,1.4368,1.4388,1.4383,1.4367,1.4367,1.4366,1.4365,0,1.3951,1.3961,1.4029,1.406,1.407,1.4115,1.4143,1.4182,1.4194,1.425,1.4263,1.4283,1.4335,1.4348,1.441,1.4416,1.4496,1.4491,1.4485,1.4485,1.4535,1.4531,1.4687,1.4709,1.4573,1.4575,1.4576,0,1.4012,1.4054,1.4091,1.4119,1.4138,1.4183,1.4212,1.4218,1.4249,1.4292,1.4327,1.4378,1.4419,1.4504,1.4525,1.4574,1.4572,1.4623,1.4579,1.4579,1.4576,1.4575,1.4581,1.4632,1.4633,1.4634,1.4635,0,1.4121,1.4125,1.4165,1.421,1.4244,1.4279,1.4313,1.4337,1.4348,1.4384,1.4437,1.4469,1.4533,1.4586,1.4635,1.4657,1.465,1.4649,1.4663,1.4665,1.4661,1.4667,1.4511,1.4646,1.4644,1.4644,1.4643,1.4643,1.4199,1.4237,1.427,1.4317,1.4343,1.4376,1.4415,1.4432,1.4476,1.4528,1.4529,1.4588,1.4625,1.469,1.4715,1.4763,1.4748,1.4768,1.4773,1.4779,1.4785,1.4652,1.4772,1.4771,1.4771,1.4771,1.4771,0,1.431,1.4331,1.4374,1.4422,1.446,1.4448,1.4486,1.452,1.4571,1.4605,1.4646,1.4709,1.4761,1.4787,1.4839,1.4873,1.4871,1.4887,1.4886,1.4892,1.4794,1.4778,1.4887,1.4887,1.4887,1.4887,1.4887,1.4887,1.4373,1.4438,1.4446,1.4526,1.4546,1.4603,1.4626,1.4658,1.4685,1.4756,1.4798,1.4814,1.4847,1.4902,1.495,1.4956,1.4978,1.4995,1.5001,1.491,1.4898,1.4887,1.4871,1.4999,1.4999,1.5095,1.5096,1.5096]},{"header":{"parameterUnit":"m.s-1","parameterCategory":1,"la1":30.2991,"la2":30.254,"lo1":-89.0895,"lo2":-89.0444,"dy":0.0017,"dx":0.0017,"nx":28,"ny":28,"refTime":"2025-08-02T09:00:00:Z","depth":0,"parameterNumber":3,"parameterNumberName":"V-component_of_WINDS"},"data":[0,0,0,0,0,0,0,0,0,0,0,0,0,0,0,0,0,0,0,0,0,0,0,0,0,0,0,0,0,0,0,0,0,0,0,0,0,0,0,0,0,0,0,0,0,0,0,0,0,0,0,0,0,0,0,0,0,0,-0.7764,-0.7764,0,-0.7719,-0.7718,-0.7718,-0.7711,-0.7711,-0.7712,-0.7712,-0.7661,-0.766,-0.7658,0,0,0,0,0,0,0,0,0,0,0,0,0,-0.784,-0.7838,-0.7764,-0.7763,-0.7763,-0.7719,-0.7718,-0.7717,-0.7711,-0.7711,-0.7712,-0.7712,-0.7662,-0.766,-0.7658,0,0,0,0,0,0,0,0,0,0,0,0,0,-0.7802,-0.7838,-0.7764,-0.7754,-0.7753,-0.7719,-0.7718,-0.7717,-0.7711,-0.7711,-0.7712,-0.7713,-0.7663,-0.766,-0.7657,-0.7629,0,0,-0.7649,-0.7648,0,0,0,0,0,0,0,0,-0.7804,-0.7799,-0.7756,-0.7755,-0.7753,-0.7721,-0.7726,-0.7687,-0.7711,-0.7727,-0.7712,-0.7713,-0.768,-0.7676,-0.7666,-0.7626,-0.7624,-0.7649,-0.7648,-0.7647,-0.7646,0,0,0,0,0,0,0,-0.7806,-0.7801,-0.7746,-0.7756,-0.7754,-0.775,-0.7746,-0.7719,-0.77,-0.7725,-0.7725,-0.772,-0.768,-0.7669,-0.7665,-0.7623,-0.7649,-0.7647,-0.7645,-0.7644,-0.7554,-0.7553,0,0,0,0,0,0,-0.7812,-0.7803,-0.7747,-0.7745,-0.7781,-0.7749,-0.7743,-0.7731,-0.7701,-0.7697,-0.7719,-0.772,-0.7673,-0.7668,-0.7663,-0.7626,-0.7647,-0.7644,-0.7643,-0.7555,-0.7554,-0.7553,0,0,0,0,0,0,-0.7813,-0.7807,-0.7749,-0.7774,-0.7766,-0.7747,-0.7733,-0.773,-0.7719,-0.7696,-0.7692,-0.7712,-0.7673,-0.7667,-0.7637,-0.7624,-0.7643,-0.7641,-0.7556,-0.7555,-0.7553,-0.7551,0,0,0,0,0,0,-0.7815,-0.7807,-0.7798,-0.7774,-0.7765,-0.7725,-0.7732,-0.7728,-0.7715,-0.7715,-0.7688,-0.7684,-0.7673,-0.7641,-0.7634,-0.762,-0.7638,-0.7557,-0.7555,-0.7554,-0.7552,-0.755,-0.7548,0,0,0,0,0,-0.7818,-0.7798,-0.7797,-0.779,-0.7752,-0.7725,-0.7719,-0.7708,-0.7714,-0.7703,-0.7688,-0.7685,-0.7627,-0.7638,-0.763,-0.7616,-0.7558,-0.7556,-0.7554,-0.7553,-0.755,-0.7548,0,0,0,0,0,0,-0.782,-0.7795,-0.7793,-0.7766,-0.7747,-0.7724,-0.7709,-0.7706,-0.7685,-0.7686,-0.7672,-0.7666,-0.7636,-0.7623,-0.7636,-0.7585,-0.7592,-0.7589,-0.7594,-0.7591,-0.7589,-0.7592,-0.7636,0,0,0,0,0,-0.7818,-0.7799,-0.7777,-0.7755,-0.7746,-0.7729,-0.7717,-0.771,-0.769,-0.7682,-0.7665,-0.7644,-0.762,-0.7605,-0.7583,-0.7551,-0.7543,-0.7536,-0.7534,-0.7533,-0.7529,-0.7509,-0.7505,-0.7547,-0.7547,-0.7547,0,0,-0.7812,-0.7796,-0.7784,-0.7755,-0.774,-0.7718,-0.7723,-0.7701,-0.7684,-0.7678,-0.7648,-0.7635,-0.7611,-0.7579,-0.7564,-0.7567,-0.7516,-0.753,-0.7529,-0.7527,-0.7506,-0.7502,-0.7499,-0.7546,-0.7546,-0.7546,0,0,-0.779,-0.7777,-0.7756,-0.774,-0.7718,-0.7707,-0.7702,-0.7678,-0.7669,-0.764,-0.7634,-0.7613,-0.7574,-0.7556,-0.7542,-0.7512,-0.7508,-0.7505,-0.7493,-0.7473,-0.747,-0.7467,-0.7454,-0.7449,-0.7502,-0.7502,-0.7502,0,-0.7785,-0.7754,-0.7745,-0.7722,-0.7708,-0.7703,-0.768,-0.7665,-0.7636,-0.7625,-0.763,-0.7579,-0.7563,-0.7525,-0.7518,-0.7507,-0.7499,-0.7507,-0.7471,-0.7468,-0.7465,-0.7452,-0.7448,-0.7502,-0.7502,-0.7502,-0.7502,0,-0.7748,-0.7727,-0.7712,-0.7685,-0.7669,-0.7647,-0.7632,-0.7617,-0.7611,-0.7598,-0.7567,-0.7547,-0.7519,-0.751,-0.7504,-0.7471,-0.7473,-0.7475,-0.7482,-0.7461,-0.7449,-0.7444,-0.7501,-0.7501,-0.7501,-0.7501,0,0,-0.7727,-0.7694,-0.7688,-0.7675,-0.7649,-0.7631,-0.7607,-0.7581,-0.7568,-0.7547,-0.7525,-0.7492,-0.7492,-0.7476,-0.7468,-0.7451,-0.7425,-0.7454,-0.7453,-0.7447,-0.7384,-0.7382,-0.7377,-0.7422,-0.7421,-0.7421,-0.7386,0,-0.77,-0.7659,-0.7649,-0.7613,-0.7591,-0.7585,-0.7564,-0.7544,-0.7532,-0.7511,-0.7496,-0.7472,-0.7476,-0.7466,-0.7448,-0.7432,-0.7412,-0.7434,-0.7399,-0.7398,-0.7404,-0.7371,-0.7369,-0.7337,-0.7381,-0.738,-0.738,0,-0.7664,-0.7644,-0.7606,-0.7581,-0.7572,-0.7553,-0.7527,-0.7508,-0.7484,-0.7476,-0.7458,-0.7451,-0.7423,-0.7432,-0.7392,-0.7408,-0.7393,-0.7382,-0.7381,-0.7376,-0.7387,-0.7363,-0.7327,-0.7321,-0.7372,-0.7373,-0.7373,0,-0.765,-0.7613,-0.7585,-0.7574,-0.7545,-0.7531,-0.7518,-0.7496,-0.748,-0.7457,-0.7446,-0.742,-0.7404,-0.7383,-0.7368,-0.7377,-0.7328,-0.7337,-0.7319,-0.7319,-0.7308,-0.7308,-0.7266,-0.7301,-0.7301,-0.7301,-0.7301,0,-0.7621,-0.7597,-0.7578,-0.756,-0.7533,-0.752,-0.7493,-0.7479,-0.7459,-0.7437,-0.743,-0.7409,-0.7391,-0.7367,-0.7355,-0.7322,-0.7316,-0.7307,-0.7304,-0.7307,-0.7308,-0.7295,-0.7297,-0.73,-0.73,-0.73,-0.7301,0,-0.76,-0.7586,-0.7555,-0.7529,-0.7522,-0.7503,-0.748,-0.7462,-0.7449,-0.7421,-0.7414,-0.7393,-0.7364,-0.7347,-0.7311,-0.7302,-0.7265,-0.7264,-0.7274,-0.7272,-0.7253,-0.7254,-0.7201,-0.7192,-0.7234,-0.7234,-0.7234,0,-0.7581,-0.7563,-0.7536,-0.7521,-0.7508,-0.7485,-0.7469,-0.7455,-0.7438,-0.7409,-0.7394,-0.7365,-0.7341,-0.7295,-0.7275,-0.7246,-0.7243,-0.7226,-0.7238,-0.7241,-0.724,-0.724,-0.7237,-0.7223,-0.7223,-0.7222,-0.7222,0,-0.755,-0.7543,-0.7521,-0.7496,-0.7477,-0.7456,-0.7435,-0.7423,-0.7406,-0.7387,-0.7358,-0.7339,-0.7302,-0.7272,-0.7241,-0.7225,-0.7219,-0.7219,-0.7212,-0.7214,-0.722,-0.7214,-0.7266,-0.722,-0.722,-0.722,-0.722,-0.722,-0.7528,-0.751,-0.7488,-0.7463,-0.7446,-0.7426,-0.7407,-0.7392,-0.7368,-0.7337,-0.733,-0.7299,-0.7273,-0.7232,-0.7215,-0.7189,-0.7192,-0.7183,-0.7181,-0.7178,-0.7176,-0.7225,-0.7184,-0.7184,-0.7184,-0.7184,-0.7184,0,-0.7494,-0.7479,-0.7456,-0.7427,-0.7407,-0.7405,-0.7381,-0.7363,-0.7337,-0.7314,-0.7291,-0.7256,-0.7227,-0.7204,-0.7174,-0.7157,-0.7153,-0.7149,-0.7149,-0.7145,-0.7177,-0.7185,-0.7152,-0.7152,-0.7152,-0.7152,-0.7152,-0.7152,-0.7474,-0.7443,-0.7434,-0.7394,-0.7379,-0.7349,-0.7336,-0.7316,-0.7298,-0.726,-0.7236,-0.7222,-0.7199,-0.7166,-0.7138,-0.7132,-0.712,-0.7116,-0.7109,-0.7139,-0.7143,-0.7146,-0.7153,-0.7114,-0.7114,-0.7078,-0.7078,-0.7078]}]]